{"data":{"norad_id":66529,"intl_designator":"2025-265P","name":"STARLINK-35933","alt_names":[],"object_type":"PAYLOAD","status":"ACTIVE","operator":null,"country":"US","launch_date":"2025-11-19","launch_site_code":"AFETR","launch_vehicle":null,"mission":null,"orbit_class":"UNKNOWN","rcs_meters":null,"size_class":null,"mass_kg":null,"dimensions":null,"purposes":["comms"],"wikipedia_slug":null,"has_3d_model":false,"image_url":null,"decayed_at":null,"tle_current":{"epoch":"2026-05-25T05:14:08.610144Z","epoch_age_seconds":59317,"freshness":"FRESH","line1":"1 66529U 25265P   26145.21815521  .00015153  00000+0  55884-3 0  9998","line2":"2 66529  43.0027 206.0774 0001559 267.0874  92.9799 15.27591637 28816","mean_motion":15.27591637,"eccentricity":0.0001559,"inclination_deg":43.0027,"raan_deg":206.0774,"arg_perigee_deg":267.0874,"mean_anomaly_deg":92.9799,"bstar":0.00055884,"rev_number":2881,"period_min":94.266030601475,"perigee_km":481.94459741646,"apogee_km":484.08390437649,"semimajor_km":6861.1512508965,"source":"CELESTRAK","updated_at":"2026-05-25T13:38:21.251956Z"}}}